Tracking 35274 objects as of 10-Sep-2026
HD Live streaming from Space Station
objects crossing your sky now

COSMOS 1408 DEB


COSMOS 1408 DEB is no longer on orbit


NORAD ID: 50934
Int'l Code: 1982-092AWD
Launch date: September 16, 1982
Source: Commonwealth of Independent States (former USSR) (CIS)
Launch site: PLESETSK MISSILE AND SPACE COMPLEX (PKMTR)
Decay date: 2022-03-06

Note: This is SATELLITE DEBRIS
Your satellite tracking list
Your tracking list is empty




NASA's NSSDC Master Catalog

Two Line Element Set (TLE):
1 50934U 82092AWD 22062.60207949  .02778982  61373-2  82967-2 0  9990
2 50934  82.5959  13.2642 0027272 141.0495 219.2752 15.93257680 11425
Source of the keplerian elements: AFSPC